| time (UTC) | temp F | wind direction | speed MPH | gust MPH | rain 1hr in | rain 24hr in | rain mn in | humidity % | barometer mb |
| 20260906060057 | 49 | 0 | 0.0 | 2.0 | 0.00 | 0.00 | 0.00 | 72 | 1020.4 |
| 20260906054557 | 49 | 0 | 0.0 | 3.0 | 0.00 | 0.00 | 0.00 | 71 | 1020.3 |
| 20260906053053 | 49 | 0 | 0.0 | 3.0 | 0.00 | 0.00 | 0.00 | 69 | 1020.4 |
| 20260906051546 | 49 | 17 | 0.0 | 4.0 | 0.00 | 0.00 | 0.00 | 68 | 1020.4 |
| 20260906050108 | 49 | 0 | 0.0 | 5.0 | 0.00 | 0.00 | 0.00 | 66 | 1020.5 |
| 20260906044553 | 50 | 13 | 0.0 | 4.0 | 0.00 | 0.00 | 0.00 | 65 | 1020.5 |
| 20260906043104 | 50 | 0 | 0.0 | 4.0 | 0.00 | 0.00 | 0.00 | 65 | 1020.3 |
| 20260906041550 | 50 | 0 | 0.0 | 5.0 | 0.00 | 0.00 | 0.00 | 65 | 1020.2 |
| 20260906040106 | 50 | 304 | 0.0 | 4.0 | 0.00 | 0.00 | 0.00 | 65 | 1020.0 |
| 20260906034553 | 50 | 0 | 0.0 | 5.0 | 0.00 | 0.00 | 0.00 | 65 | 1019.8 |
| 20260906033052 | 50 | 0 | 0.0 | 6.0 | 0.00 | 0.00 | 0.00 | 65 | 1019.5 |
| 20260906031545 | 51 | 0 | 0.0 | 2.0 | 0.00 | 0.00 | 0.00 | 64 | 1019.4 |
| 20260906030107 | 51 | 0 | 0.0 | 6.0 | 0.00 | 0.00 | 0.00 | 65 | 1019.6 |
| 20260906024551 | 51 | 0 | 0.0 | 2.0 | 0.00 | 0.00 | 0.00 | 64 | 1019.6 |
| 20260906023102 | 52 | 0 | 0.0 | 3.0 | 0.00 | 0.00 | 0.00 | 63 | 1019.6 |
| 20260906021546 | 53 | 257 | 0.0 | 3.0 | 0.00 | 0.00 | 0.00 | 62 | 1019.3 |
| 20260906020056 | 53 | 0 | 0.0 | 5.0 | 0.00 | 0.00 | 0.00 | 61 | 1019.3 |
| 20260906014604 | 54 | 0 | 0.0 | 4.0 | 0.00 | 0.00 | 0.00 | 59 | 1019.4 |
| 20260906013047 | 55 | 0 | 0.0 | 6.0 | 0.00 | 0.00 | 0.00 | 57 | 1019.4 |
| 20260906011559 | 55 | 189 | 1.0 | 4.0 | 0.00 | 0.00 | 0.00 | 55 | 1019.4 |
| 20260906010057 | 56 | 0 | 0.0 | 3.0 | 0.00 | 0.00 | 0.00 | 55 | 1019.7 |
| 20260906004546 | 56 | 0 | 0.0 | 4.0 | 0.00 | 0.00 | 0.00 | 54 | 1019.8 |
| 20260906003049 | 57 | 0 | 0.0 | 6.0 | 0.00 | 0.00 | 0.00 | 54 | 1019.8 |
| 20260906001543 | 57 | 0 | 0.0 | 8.0 | 0.00 | 0.00 | 0.00 | 53 | 1019.6 |
| 20260906000104 | 57 | 184 | 1.0 | 13.0 | 0.00 | 0.00 | 0.00 | 52 | 1019.8 |
| 20260905234556 | 58 | 188 | 2.0 | 11.0 | 0.00 | 0.00 | 0.00 | 52 | 1019.8 |
| 20260905233046 | 58 | 195 | 2.0 | 10.0 | 0.00 | 0.00 | 0.00 | 52 | 1019.6 |
| 20260905231554 | 58 | 186 | 3.0 | 10.0 | 0.00 | 0.00 | 0.00 | 51 | 1019.7 |
| 20260905230051 | 59 | 249 | 1.0 | 10.0 | 0.00 | 0.00 | 0.00 | 48 | 1019.8 |
| 20260905224600 | 61 | 194 | 3.0 | 12.0 | 0.00 | 0.00 | 0.00 | 47 | 1019.8 |
| 20260905223045 | 60 | 201 | 0.0 | 19.0 | 0.00 | 0.00 | 0.00 | 49 | 1019.8 |
| 20260905221553 | 62 | 166 | 1.0 | 10.0 | 0.00 | 0.00 | 0.00 | 46 | 1019.8 |
| 20260905220047 | 61 | 163 | 3.0 | 14.0 | 0.00 | 0.00 | 0.00 | 48 | 1019.9 |
| 20260905214546 | 62 | 178 | 3.0 | 13.0 | 0.00 | 0.00 | 0.00 | 46 | 1019.8 |
| 20260905213054 | 62 | 183 | 6.0 | 15.0 | 0.00 | 0.00 | 0.00 | 44 | 1019.8 |
| 20260905211545 | 61 | 220 | 3.0 | 10.0 | 0.00 | 0.00 | 0.00 | 45 | 1019.9 |
| 20260905210045 | 61 | 181 | 4.0 | 11.0 | 0.00 | 0.00 | 0.00 | 46 | 1020.0 |
| 20260905204555 | 60 | 251 | 3.0 | 10.0 | 0.00 | 0.00 | 0.00 | 47 | 1020.1 |
| 20260905203059 | 61 | 190 | 6.0 | 13.0 | 0.00 | 0.00 | 0.00 | 44 | 1020.2 |
| 20260905201547 | 61 | 189 | 3.0 | 13.0 | 0.00 | 0.00 | 0.00 | 48 | 1020.2 |
| 20260905200052 | 61 | 227 | 1.0 | 11.0 | 0.00 | 0.00 | 0.00 | 46 | 1020.1 |
| 20260905194542 | 60 | 205 | 3.0 | 11.0 | 0.00 | 0.00 | 0.00 | 48 | 1020.1 |
| 20260905193047 | 60 | 146 | 1.0 | 12.0 | 0.00 | 0.00 | 0.00 | 49 | 1020.1 |
| 20260905191546 | 59 | 201 | 3.0 | 10.0 | 0.00 | 0.00 | 0.00 | 51 | 1020.2 |
| 20260905190103 | 57 | 148 | 4.0 | 10.0 | 0.00 | 0.00 | 0.00 | 52 | 1020.2 |
| 20260905184601 | 56 | 167 | 2.0 | 7.0 | 0.00 | 0.00 | 0.00 | 54 | 1020.4 |
| 20260905183053 | 56 | 205 | 1.0 | 5.0 | 0.00 | 0.00 | 0.00 | 55 | 1020.3 |
| 20260905181548 | 56 | 180 | 3.0 | 7.0 | 0.00 | 0.00 | 0.00 | 56 | 1020.3 |
| 20260905180042 | 54 | 198 | 0.0 | 8.0 | 0.00 | 0.00 | 0.00 | 58 | 1020.2 |
| 20260905174551 | 55 | 194 | 4.0 | 8.0 | 0.00 | 0.00 | 0.00 | 57 | 1020.0 |
| 20260905173046 | 55 | 167 | 4.0 | 10.0 | 0.00 | 0.00 | 0.00 | 58 | 1020.2 |
| 20260905171545 | 53 | 167 | 1.0 | 5.0 | 0.00 | 0.00 | 0.00 | 59 | 1020.2 |
| 20260905170047 | 53 | 0 | 1.0 | 8.0 | 0.00 | 0.00 | 0.00 | 61 | 1020.2 |
| 20260905164557 | 52 | 0 | 1.0 | 6.0 | 0.00 | 0.00 | 0.00 | 63 | 1020.0 |
| 20260905163051 | 51 | 0 | 0.0 | 4.0 | 0.00 | 0.00 | 0.00 | 66 | 1020.0 |
| 20260905161546 | 51 | 0 | 0.0 | 1.0 | 0.00 | 0.00 | 0.00 | 67 | 1020.0 |
| 20260905160111 | 51 | 188 | 0.0 | 2.0 | 0.00 | 0.00 | 0.00 | 69 | 1020.1 |
| 20260905154550 | 50 | 0 | 0.0 | 3.0 | 0.00 | 0.00 | 0.00 | 70 | 1020.0 |
| 20260905153058 | 51 | 0 | 0.0 | 1.0 | 0.00 | 0.00 | 0.00 | 68 | 1019.9 |
| 20260905151548 | 52 | 0 | 0.0 | 2.0 | 0.00 | 0.00 | 0.00 | 67 | 1019.9 |
| 20260905150045 | 53 | 0 | 0.0 | 2.0 | 0.00 | 0.00 | 0.00 | 63 | 1019.9 |
| 20260905144551 | 52 | 0 | 0.0 | 3.0 | 0.00 | 0.01 | 0.00 | 66 | 1019.9 |
| 20260905143049 | 50 | 219 | 0.0 | 4.0 | 0.00 | 0.01 | 0.00 | 69 | 1019.7 |
| 20260905141553 | 48 | 0 | 0.0 | 2.0 | 0.00 | 0.01 | 0.00 | 73 | 1019.6 |
| 20260905140107 | 47 | 0 | 0.0 | 2.0 | 0.00 | 0.01 | 0.00 | 75 | 1019.6 |
| 20260905134552 | 47 | 0 | 0.0 | 3.0 | 0.00 | 0.04 | 0.00 | 77 | 1019.4 |
| 20260905133046 | 46 | 0 | 0.0 | 0.0 | 0.00 | 0.04 | 0.00 | 77 | 1019.2 |
| 20260905131557 | 47 | 0 | 0.0 | 0.0 | 0.00 | 0.04 | 0.00 | 77 | 1019.1 |
| 20260905130049 | 47 | 0 | 0.0 | 2.0 | 0.00 | 0.04 | 0.00 | 76 | 1019.0 |
| 20260905124548 | 47 | 0 | 0.0 | 2.0 | 0.00 | 0.04 | 0.00 | 75 | 1019.2 |
| 20260905123050 | 47 | 0 | 0.0 | 3.0 | 0.00 | 0.04 | 0.00 | 73 | 1019.3 |
| 20260905121545 | 47 | 0 | 0.0 | 3.0 | 0.00 | 0.04 | 0.00 | 72 | 1019.4 |
| 20260905120044 | 47 | 0 | 0.0 | 6.0 | 0.00 | 0.04 | 0.00 | 71 | 1019.5 |
| 20260905114554 | 47 | 0 | 0.0 | 6.0 | 0.00 | 0.04 | 0.00 | 71 | 1019.5 |
| 20260905113052 | 47 | 295 | 0.0 | 3.0 | 0.00 | 0.04 | 0.00 | 75 | 1019.6 |
| 20260905111605 | 47 | 0 | 0.0 | 3.0 | 0.00 | 0.04 | 0.00 | 74 | 1019.4 |
| 20260905110048 | 46 | 293 | 0.0 | 2.0 | 0.00 | 0.04 | 0.00 | 74 | 1019.6 |
| 20260905104558 | 46 | 293 | 0.0 | 3.0 | 0.00 | 0.04 | 0.00 | 76 | 1019.6 |
| 20260905103053 | 46 | 0 | 0.0 | 2.0 | 0.00 | 0.04 | 0.00 | 77 | 1019.6 |
| 20260905101549 | 46 | 0 | 0.0 | 2.0 | 0.00 | 0.04 | 0.00 | 76 | 1019.7 |
| 20260905100046 | 46 | 0 | 0.0 | 3.0 | 0.00 | 0.04 | 0.00 | 76 | 1019.8 |
| 20260905094544 | 46 | 0 | 0.0 | 2.0 | 0.00 | 0.04 | 0.00 | 76 | 1019.7 |
| 20260905093052 | 46 | 278 | 0.0 | 0.0 | 0.00 | 0.04 | 0.00 | 76 | 1019.6 |
| 20260905091545 | 46 | 0 | 0.0 | 2.0 | 0.00 | 0.04 | 0.00 | 75 | 1019.6 |
| 20260905090047 | 47 | 278 | 0.0 | 0.0 | 0.00 | 0.04 | 0.00 | 75 | 1019.7 |
| 20260905084543 | 46 | 0 | 0.0 | 3.0 | 0.00 | 0.04 | 0.00 | 76 | 1019.7 |
| 20260905083052 | 46 | 279 | 0.0 | 2.0 | 0.00 | 0.04 | 0.00 | 75 | 1019.8 |
| 20260905081545 | 46 | 0 | 0.0 | 2.0 | 0.00 | 0.04 | 0.00 | 75 | 1019.8 |
| 20260905080047 | 46 | 278 | 0.0 | 3.0 | 0.00 | 0.04 | 0.00 | 76 | 1019.9 |
| 20260905074551 | 45 | 277 | 0.0 | 3.0 | 0.00 | 0.04 | 0.00 | 78 | 1019.7 |
| 20260905073102 | 45 | 0 | 0.0 | 2.0 | 0.00 | 0.04 | 0.00 | 78 | 1019.8 |
| 20260905071547 | 45 | 277 | 0.0 | 2.0 | 0.00 | 0.04 | 0.00 | 78 | 1019.7 |
| 20260905070048 | 45 | 277 | 0.0 | 1.0 | 0.00 | 0.04 | 0.00 | 78 | 1019.6 |
| 20260905064546 | 45 | 0 | 0.0 | 3.0 | 0.00 | 0.04 | 0.04 | 78 | 1019.5 |
| 20260905063054 | 45 | 0 | 0.0 | 2.0 | 0.00 | 0.04 | 0.04 | 78 | 1019.5 |
| 20260905061548 | 45 | 0 | 0.0 | 0.0 | 0.00 | 0.04 | 0.04 | 78 | 1019.5 |